Location: Oshawa
(43.9000°N, 78.8670°W)
Time: 13:02:14
(UTC-05:00)

PAYLOAD A - Visible Passes

Search period start: 06 December 2016 00:00
Search period end: 16 December 2016 00:00
Orbit: 692 x 832 km, 98.2° (Epoch: 05 December)

Date Brightness Start Highest point End Pass type
(mag) Time Alt. Az. Time Alt. Az. Time Alt. Az.
06 Dec 6.6 05:14:27 10° NE 05:18:36 22° E 05:22:45 10° SE visible
06 Dec 4.3 06:52:36 10° N 06:57:48 53° WNW 07:03:03 10° SW visible
06 Dec 5.8 18:08:56 10° SSW 18:13:15 33° W 18:17:44 10° NNW visible
07 Dec 4.4 06:14:51 10° NNE 06:20:15 76° ESE 06:25:41 10° S visible
07 Dec 4.2 17:30:37 10° S 17:35:26 75° WSW 17:40:29 10° NNW visible
08 Dec 5.8 05:37:33 10° NNE 05:42:30 36° E 05:47:26 10° SSE visible
08 Dec 6.6 18:33:36 10° SW 18:37:08 20° W 18:40:47 10° NW visible
09 Dec 7.0 05:01:05 10° NE 05:04:32 17° E 05:07:59 10° SE visible
09 Dec 4.1 06:38:34 10° N 06:43:56 69° WNW 06:49:19 10° SSW visible
09 Dec 5.2 17:54:33 10° S 17:59:11 44° W 18:04:02 10° NNW visible
10 Dec 4.8 06:00:59 10° NNE 06:06:19 58° E 06:11:39 10° S visible
10 Dec 3.9 17:16:35 10° SSE 17:21:28 82° ENE 17:26:35 10° NNW visible
10 Dec 7.2 18:59:22 10° WSW 19:01:08 12° W 19:02:56 10° WNW visible
11 Dec 6.3 05:23:53 10° NE 05:28:29 27° E 05:33:04 10° SSE visible
11 Dec 4.5 07:02:27 10° N 07:07:32 43° WNW 07:12:39 10° SW visible
11 Dec 6.2 18:18:54 10° SSW 18:23:02 27° W 18:27:19 10° NW visible
12 Dec 7.3 04:48:07 10° ENE 04:50:26 13° E 04:52:44 10° ESE visible
12 Dec 4.2 06:24:36 10° NNE 06:30:03 89° WNW 06:35:29 10° SSW visible
12 Dec 4.6 17:40:19 10° S 17:45:09 60° W 17:50:15 10° NNW visible
13 Dec 5.4 05:47:10 10° NNE 05:52:21 44° E 05:57:31 10° S visible
13 Dec 4.0 17:02:40 10° SSE 17:07:31 62° ENE 17:12:38 10° N visible
13 Dec 6.9 18:43:52 10° SW 18:46:59 16° W 18:50:09 10° NW visible
14 Dec 6.7 05:10:23 10° NE 05:14:27 21° E 05:18:28 10° SE visible
14 Dec 4.2 06:48:23 10° N 06:53:42 56° WNW 06:58:59 10° SSW visible
14 Dec 5.7 18:04:25 10° SSW 18:08:57 36° W 18:13:42 10° NNW visible
15 Dec 4.5 06:10:41 10° NNE 06:16:08 71° ESE 06:21:32 10° S visible
15 Dec 4.2 17:26:12 10° S 17:31:11 81° WSW 17:36:24 10° NNW visible
